La Porte, IN

2:24 PM CDT on September 25, 2016 (GMT -0500)
La Porte Municipal

Weather History for KPPO - August, 2014

Change the Weather History Date:

Monday, August 18, 2014

  Actual Average (KVPZ) Record (KVPZ)
Temperature  
Mean Temperature 72 °F 71 °F  
Max Temperature 79 °F 80 °F 84 °F (2011)
Min Temperature 64 °F 61 °F 49 °F (2012)
Degree Days  
Heating Degree Days 0 0  
Month to date heating degree days 0  
Since 1 June heating degree days 45  
Since 1 July heating degree days 4  
Cooling Degree Days 6 6  
Month to date cooling degree days 118  
Year to date cooling degree days 569  
Since 1 June cooling degree days 522  
Growing Degree Days 22 (Base 50)    
Moisture  
Dew Point 66 °F    
Average Humidity 91    
Maximum Humidity 100    
Minimum Humidity 63    
Precipitation  
Precipitation 0.00 in 0.15 in 2.38 in (2015)
Month to date precipitation 2.46  
Year to date precipitation 23.69  
Sea Level Pressure  
Sea Level Pressure 29.89 in    
Wind  
Wind Speed 3 mph (WNW)    
Max Wind Speed 8 mph    
Max Gust Speed -    
Visibility 5 miles    
Events Fog    
T = Trace of Precipitation, MM = Missing Value Source: NWS Daily Summary

Daily Weather History Graph

Daily Weather History Graph

Search for Another Location

Airport or City:

Trip Planner

Search our weather history database for the weather conditions in past years. The results will help you decide how hot, cold, wet, or windy it might be!

Date:

Astronomy

Aug. 18, 2014 Rise Set
Actual Time 5:58 AM CDT 7:42 PM CDT
Civil Twilight 5:29 AM CDT 8:11 PM CDT
Nautical Twilight 4:53 AM CDT 8:47 PM CDT
Astronomical Twilight 4:14 AM CDT 9:25 PM CDT
Moon 12:04 AM CDT (8/18) 2:46 PM CDT (8/18)
Length of Visible Light 14h 42m
Length of Day
13h 43m
Last Quarter, 38% of the Moon is Illuminated
Aug 18
Last Quarter
Aug 25
New
Sep 2
First Quarter
Sep 8
Full
Sep 15
Last Quarter

Hourly Weather History & Observations

Time (CDT) Temp. Dew Point Humidity Pressure Visibility Wind Dir Wind Speed Gust Speed Precip Events Conditions
12:15 AM 64.6 °F 64.6 °F 100% 29.95 in 5.0 mi North 5.8 mph - N/A   Overcast
12:35 AM 64.6 °F 64.6 °F 100% 29.94 in 4.0 mi North 6.9 mph - N/A   Overcast
12:55 AM 64.4 °F 64.4 °F 100% 29.94 in 2.5 mi North 8.1 mph - N/A   Overcast
1:15 AM 64.4 °F 64.4 °F 100% 29.93 in 1.5 mi North 3.5 mph - N/A   Overcast
1:35 AM 64.4 °F 64.4 °F 100% 29.93 in 1.0 mi North 3.5 mph - N/A   Overcast
1:55 AM 64.4 °F 64.4 °F 100% 29.92 in 0.5 mi Calm Calm - N/A Fog Fog
2:15 AM 64.4 °F 64.4 °F 100% 29.91 in 0.5 mi Calm Calm - N/A Fog Fog
2:35 AM 64.4 °F 64.4 °F 100% 29.91 in 0.8 mi Calm Calm - N/A   Overcast
2:55 AM 64.6 °F 64.6 °F 100% 29.90 in 1.2 mi Calm Calm - N/A   Overcast
3:15 AM 64.6 °F 64.6 °F 100% 29.90 in 1.0 mi Calm Calm - N/A   Overcast
3:35 AM 64.8 °F 64.8 °F 100% 29.90 in 0.8 mi Calm Calm - N/A   Overcast
3:55 AM 64.8 °F 64.8 °F 100% 29.91 in 0.8 mi Calm Calm - N/A   Overcast
4:15 AM 64.9 °F 64.9 °F 100% 29.91 in 0.8 mi NW 4.6 mph - N/A   Overcast
4:35 AM 64.9 °F 64.9 °F 100% 29.91 in 0.8 mi NNW 3.5 mph - N/A   Overcast
4:55 AM 65.3 °F 65.3 °F 100% 29.91 in 0.8 mi Calm Calm - N/A   Overcast
5:15 AM 65.3 °F 65.3 °F 100% 29.91 in 0.5 mi NW 3.5 mph - N/A Fog Fog
5:35 AM 64.9 °F 64.9 °F 100% 29.92 in 0.5 mi NW 4.6 mph - N/A Fog Fog
5:55 AM 64.6 °F 64.6 °F 100% 29.92 in 0.5 mi NNW 3.5 mph - N/A Fog Fog
6:15 AM 64.8 °F 64.8 °F 100% 29.92 in 0.2 mi NW 3.5 mph - N/A Fog Fog
6:35 AM 64.9 °F 64.9 °F 100% 29.92 in 0.2 mi Calm Calm - N/A Fog Fog
6:55 AM 65.3 °F 65.3 °F 100% 29.93 in 0.5 mi Calm Calm - N/A Fog Fog
7:15 AM 65.7 °F 65.7 °F 100% 29.93 in 0.5 mi Calm Calm - N/A Fog Fog
7:35 AM 65.8 °F 65.8 °F 100% 29.93 in 1.2 mi North 3.5 mph - N/A   Overcast
7:55 AM 66.2 °F 66.2 °F 100% 29.93 in 1.2 mi Calm Calm - N/A   Overcast
8:15 AM 66.4 °F 66.4 °F 100% 29.93 in 1.8 mi North 3.5 mph - N/A   Overcast
8:35 AM 66.4 °F 66.4 °F 100% 29.93 in 2.0 mi Calm Calm - N/A   Overcast
8:55 AM 67.1 °F 67.1 °F 100% 29.92 in 3.0 mi Calm Calm - N/A   Overcast
9:10 AM 67.1 °F 67.1 °F 100% 29.92 in 4.0 mi Calm Calm - N/A   Overcast
9:35 AM 67.6 °F 67.6 °F 100% 29.92 in 5.0 mi Calm Calm - N/A   Overcast
9:55 AM 68.0 °F 68.0 °F 100% 29.92 in 5.0 mi Calm Calm - N/A   Overcast
10:15 AM - - N/A% 29.92 in 5.0 mi Calm Calm - N/A   Overcast
10:35 AM 68.9 °F 68.9 °F 100% 29.92 in 5.0 mi Calm Calm - N/A   Overcast
10:55 AM 69.6 °F 69.6 °F 100% 29.92 in 7.0 mi Calm Calm - N/A   Overcast
11:15 AM 70.0 °F 70.0 °F 100% 29.92 in 7.0 mi Calm Calm - N/A   Overcast
11:35 AM 71.1 °F 70.3 °F 98% 29.92 in 7.0 mi Calm Calm - N/A   Overcast
11:55 AM 72.0 °F 69.6 °F 92% 29.91 in 7.0 mi WSW 4.6 mph - N/A   Overcast
12:15 PM 72.5 °F 69.8 °F 91% 29.91 in 7.0 mi Calm Calm - N/A   Overcast
12:35 PM 73.6 °F 68.7 °F 85% 29.91 in 7.0 mi Calm Calm - N/A   Overcast
12:55 PM 74.3 °F 67.8 °F 80% 29.91 in 10.0 mi WSW 3.5 mph - N/A   Overcast
1:15 PM 74.3 °F 67.3 °F 79% 29.90 in 10.0 mi Calm Calm - N/A   Overcast
1:35 PM 75.2 °F 68.2 °F 79% 29.90 in 7.0 mi NW 6.9 mph - N/A   Mostly Cloudy
1:55 PM 75.9 °F 68.5 °F 78% 29.90 in 7.0 mi West 5.8 mph - N/A   Overcast
2:15 PM 76.6 °F 67.5 °F 73% 29.89 in 7.0 mi NNW 6.9 mph - N/A   Mostly Cloudy
2:55 PM 77.7 °F 67.1 °F 70% 29.88 in 10.0 mi West 6.9 mph - N/A   Clear
3:15 PM 78.1 °F 67.1 °F 69% 29.87 in 10.0 mi WNW 3.5 mph - N/A   Scattered Clouds
3:35 PM 77.5 °F 67.1 °F 70% 29.86 in 10.0 mi West 4.6 mph - N/A   Scattered Clouds
3:55 PM 78.8 °F 66.4 °F 66% 29.86 in 10.0 mi SW 4.6 mph - N/A   Scattered Clouds
4:15 PM 79.2 °F 66.7 °F 66% 29.86 in 10.0 mi SW 5.8 mph - N/A   Scattered Clouds
4:35 PM 79.0 °F 66.9 °F 66% 29.86 in 10.0 mi WSW 5.8 mph - N/A   Scattered Clouds
4:55 PM 79.0 °F 66.6 °F 66% 29.85 in 10.0 mi SSW 4.6 mph - N/A   Clear
5:15 PM 79.0 °F 66.9 °F 66% 29.84 in 10.0 mi WSW 4.6 mph - N/A   Scattered Clouds
5:35 PM 78.8 °F 65.1 °F 63% 29.83 in 10.0 mi WSW 4.6 mph - N/A   Scattered Clouds
5:55 PM 78.3 °F 66.6 °F 67% 29.83 in 7.0 mi West 6.9 mph - N/A   Clear
6:15 PM 77.7 °F 66.2 °F 68% 29.82 in 10.0 mi WSW 5.8 mph - N/A   Clear
6:35 PM 77.2 °F 66.4 °F 69% 29.83 in 10.0 mi WSW 4.6 mph - N/A   Clear
6:55 PM 76.1 °F 66.7 °F 73% 29.82 in 10.0 mi Calm Calm - N/A   Clear
7:15 PM 74.7 °F 67.5 °F 78% 29.82 in 10.0 mi Calm Calm - N/A   Clear
7:35 PM 73.4 °F 68.0 °F 83% 29.82 in 7.0 mi Calm Calm - N/A   Clear
7:55 PM 70.3 °F 68.9 °F 95% 29.82 in 7.0 mi Calm Calm - N/A   Clear
8:15 PM 69.6 °F 68.2 °F 95% 29.82 in 7.0 mi Calm Calm - N/A   Clear
8:35 PM 68.7 °F 68.7 °F 100% 29.83 in 7.0 mi Calm Calm - N/A   Clear
8:55 PM 67.6 °F 67.6 °F 100% 29.84 in 4.0 mi Calm Calm - N/A   Clear
9:15 PM 67.1 °F 67.1 °F 100% 29.83 in 5.0 mi Calm Calm - N/A   Clear
9:35 PM 66.9 °F 66.9 °F 100% 29.83 in 5.0 mi Calm Calm - N/A   Clear
9:55 PM 66.6 °F 66.6 °F 100% 29.83 in 4.0 mi Calm Calm - N/A   Clear
10:15 PM 66.0 °F 66.0 °F 100% 29.83 in 4.0 mi Calm Calm - N/A   Clear
10:35 PM 65.3 °F 65.3 °F 100% 29.84 in 4.0 mi Calm Calm - N/A   Clear
11:15 PM 64.2 °F 64.2 °F 100% 29.83 in 2.5 mi Calm Calm - N/A   Clear
11:55 PM 65.3 °F 65.3 °F 100% 29.83 in 3.0 mi Calm Calm - N/A   Clear